Regional Weather Roundup
Issued by NWS Midland/Odessa, TX

Skip options and go directly to product.
Home | Oldest Version | Previous Version | Current Version | All | Text Only | Save Text | Print | Product List | Glossary Off

Skip product version selection by date and time.   

555
ASUS44 KMAF 310310
RWRMAF
MIDLAND AREA WEATHER ROUNDUP
NATIONAL WEATHER SERVICE MIDLAND TX
1000 PM CDT SAT JUL 30 2016

...IN SOUTHWEST TEXAS AND SOUTHEAST NEW MEXICO...

CITY           SKY/WX    TMP DP  RH WIND       PRES   REMARKS
ALPINE         CLOUDY    68  62  81 SW5       30.13R
ANDREWS        FAIR      84  56  38 S7        29.99R
ARTESIA        PTCLDY    86  54  32 SE6       29.97R
BIG SPRING     PTCLDY    87  58  37 SE9       29.99R
CARLSBAD       PTCLDY    88  56  33 S13       29.94R
DRYDEN           N/A     84  63  49 SE10      29.94R
FORT STOCKTON  CLEAR     83  61  47 SE13      29.98R
GUAD PASS      CLEAR     78  53  41 S9G17     30.13R
HOBBS          CLEAR     82  54  36 SE7       30.02R
MARFA          CLOUDY    69  61  75 N8        30.12R
MIDLAND AIRPK  CLEAR     89  56  32 S12       29.98R
MIDLAND INTL   CLEAR     89  57  33 S10       29.97R
ODESSA         CLEAR     88  59  37 S16       29.99R
PECOS          CLEAR     85  58  38 SE7       29.93R
PRESIDIO       FAIR      89  57  33 E7        29.94R
SEMINOLE       CLEAR     83  53  35 SE5       30.00R
SNYDER           N/A     87  59  38 SE7       29.96R
WINK           CLEAR     87  58  37 S12       29.94R
$$
...OTHER STATIONS IN TEXAS...

CITY           SKY/WX    TMP DP  RH WIND       PRES   REMARKS
ABILENE        CLOUDY    87  62  43 SE10      29.95R
AMARILLO       CLEAR     78  61  55 SE16      30.02R
AUSTIN         PTCLDY    82  73  74 S7        29.95R
BROWNSVILLE    CLEAR     83  76  79 SE13      29.96R
CORPUS CHRISTI PTCLDY    84  78  82 SE12      29.95R
DALLAS FTW     PTCLDY    91  67  44 SE12      29.93R
DEL RIO        CLEAR     90  62  39 SE8       29.89R
EL PASO        MOCLDY    90  51  26 SE7       29.94R
HOUSTON INT    PTCLDY    85  75  72 S5        29.97R
LUBBOCK        PTCLDY    79  60  52 SE12      30.01R
SAN ANGELO     CLEAR     87  60  40 S7        29.95R
SAN ANTONIO    PTCLDY    86  71  60 SE12      29.97R
WACO           CLEAR     88  67  49 S10       29.93R
WICHITA FALLS  NOT AVBL
$$
...OTHER LOCATIONS IN NEW MEXICO...

CITY           SKY/WX    TMP DP  RH WIND       PRES   REMARKS
ALAMAGORDO     PTCLDY    84  50  30 E7        29.99R
ALBUQUERQUE    TSTM      66  56  70 N26G41    30.17R
CANNON AFB     CLEAR     78  55  44 S8        30.04R
CLOVIS         CLEAR     79  55  44 SE9       30.03S
HOLLOMAN AFB   CLOUDY    86  49  27 E7        29.96R
ROSWELL        CLOUDY    86  51  29 S6        29.97R
RUIDOSO          N/A     72  46  40 SE8       30.25R
SANTA FE       LGT RAIN  74  45  35 NE13      30.20R
TRUTH OR CONSE MOCLDY    86  51  29 W7        30.01R
TUCUMCARI      CLOUDY    82  52  35 S8        29.99R
$$

USA.gov is the U.S. government's official web portal to all federal, state and local government web resources and services.